Meteo Giornale » Osservazioni meteo Gran Bretagna » Lakenheath Royal

ore: 13:56 - Osservazioni Meteo Lakenheath Royal
Lat. 52° 25' N Lon. 0° 34' E Alt. 10 metri s.l.m.

nuvoloso Europe/London

19 °C

Nuvoloso

Temp. 24 Ore

11 °C

23 °C

Nord/NOvest

25.9 Km/h

Dew point 7 °C

Umidità 45 %

Visibilità  10 Km

Il sole sorge alle ore 05:20

Il sole tramonta alle ore 20:46

Data e Ora Cielo e Fenomeni T °C DP °C Um. % Pres. hPa Vis. km Vento km/h
Oggi h: 13:56 nuvoloso Nuvoloso 19 7 45 1015 10 N/NO 25.9
Oggi h: 13:40 molto_nuvoloso Molto Nuvoloso 18 8 51 1015 10 NO 16.7
Oggi h: 13:28 coperto_pioggia Pioggia Debole 19 7 45 1015 10 NO 20.3
Oggi h: 12:56 nuvoloso Nuvoloso 19 8 48 1015 10 NO 13
Oggi h: 11:56 molto_nuvoloso Molto Nuvoloso 19 8 48 1015 10 N/NO 13
Oggi h: 10:56 poco_nuvoloso Poco Nuvoloso 18 8 51 1015 10 N/NO 18.5
Oggi h: 09:56 sereno Sereno 17 9 59 1015 10 O/NO 16.7
Oggi h: 08:56 sereno Sereno 16 9 63 1015 10 NO 13
Oggi h: 07:56 sereno Sereno 14 9 71 1015 10 NO 9.3
Oggi h: 06:56 poco_nuvoloso Poco Nuvoloso 13 8 71 1014 10 O/NO 11.1
Oggi h: 05:56 poco_nuvoloso Poco Nuvoloso 11 8 81 1014 10 NO 9.3
Oggi h: 04:56 sereno Sereno 11 8 81 1014 10 NO 9.3
Oggi h: 03:56 sereno Sereno 12 8 76 1014 10 NO 11.1
Oggi h: 02:56 sereno Sereno 13 9 76 1014 10 NO 13
Oggi h: 01:56 nuvoloso Nuvoloso 14 10 76 1014 10 NO 11.1
Oggi h: 00:56 coperto Coperto 15 11 76 1014 10 NO 13
Oggi h: 00:25 molto_nuvoloso Molto Nuvoloso 15 11 76 1014 10 NO 11.1
Ieri h: 23:57 coperto_pioggia Pioggia Debole 15 12 82 1014 10 O/NO 11.1
Ieri h: 23:56 molto_nuvoloso Molto Nuvoloso 15 12 82 1014 10 O/NO 13
Ieri h: 22:56 molto_nuvoloso Molto Nuvoloso 15 12 82 1014 10 N 0
Ieri h: 21:56 molto_nuvoloso Molto Nuvoloso 15 12 82 1014 10 N 0
Ieri h: 21:18 molto_nuvoloso Molto Nuvoloso 17 11 67 1014 10 N 7.4
Ieri h: 20:56 coperto_pioggia Pioggia Debole 18 11 63 1014 10 N 0
Ieri h: 20:49 coperto_pioggia Pioggia Debole 18 11 63 1014 10 N 5.5
Ieri h: 19:56 molto_nuvoloso Molto Nuvoloso 20 8 45 1013 10 N 5.5
Ieri h: 18:56 poco_nuvoloso Poco Nuvoloso 22 7 37 1013 10 O 9.3
Ieri h: 17:56 poco_nuvoloso Poco Nuvoloso 23 7 35 1013 10 O 16.7
Ieri h: 16:56 nuvoloso Nuvoloso 23 6 33 1014 10 O 18.5
Ieri h: 15:56 nuvoloso Nuvoloso 22 8 40 1014 10 O/SO 11.1
Ieri h: 14:56 nuvoloso Nuvoloso 22 8 40 1014 10 O/SO 16.7